logo dgac
Lunes 20 de Mayo del 2019
Buscar por aerodromo o helipuerto
Ingrese nombre de aeródromo, localidad o designador OACI:

Aeródromo: Cochrane (PUB) (SCHR)

Ubicación: Cochrane, XI Región, Chile (47º 14' 37'' S, 72º 35' 16'' W) Ver ubicación en el mapa

Pistas

Orientación Dimensión Pendiente Superficie Resistencia APCH THR RWY PAPI
07/25 1050 x 23 2,00 ASPH /CONCRETO 23.000 Kg No No No No
Horas de operación HJ
Elevación 196 m / 643 ft
Otra Información Adm : D.G.A.C.
Uso : PUB
Ubicado : 3 km NW Cochrane
TEL (FAX) 67 2522121

Al FCCV restar 30 minutos

Otra información ver AIP-Chile Volumen I AD 3.9-3.10-C
CCCM/FCCV Descargar
andera de Chile
Mapa de Cochrane (PUB) (SCHR)

Último METAR

METAR SCHR 201300Z 26005KT CAVOK 01/M03 Q1026

Último TAF

TAF SCHR 201108Z 2012/2100 26005KT CAVOK TX08/2018Z TN01/2012Z TEMPO 2012/2015 VRB05KT 9999 FEW015

Últimas fotos cámaras

Imagen aerodromo Cochrane (PUB) (SCHR) Oeste tomada el 20-05-2019 09:49:37 Imagen aerodromo Cochrane (PUB) (SCHR) Este tomada el 20-05-2019 09:43:01

Último NOTAM

C0211/19 NOTAMN Q)SCCZ/QOBCE/IV/M/AE/000/999/4714S07235W005 A)SCHR B)1901231600 C)PERM E)CTN LGT SOLO PARA EMERG EN BORDE DE RWY 07/25, NO FRANGIBLES, A 3 M DEL BORDE DE RWY. CONSTITUYEN OBSTACULO

LLegadas a Cochrane (PUB) (SCHR)

En vuelo

Vuelo Procedencia Hora Despegue Local Hora Arribo Local

Salidas de Cochrane (PUB) (SCHR)

En vuelo

Vuelo Hacia Hora Despegue Local Hora Arribo Local